Tracking 17631 objects as of 3-May-2016
HD Live streaming from Space Station
objects crossing your sky now

COSMOS 2251 DEB


10-day predictions


NORAD ID: 37120
Int'l Code: 1993-036BGS
Launch date: June 16, 1993
Source: Commonwealth of Independent States (former USSR) (CIS)
Launch site: PLESETSK MISSILE AND SPACE COMPLEX (PKMTR)

Note: This is SATELLITE DEBRIS
Your satellite tracking list
Your tracking list is empty





NASA's NSSDC Master Catalog

Two Line Element Set (TLE):
1 37120U 93036BGS 16122.79600908  .00002611  00000-0  87669-3 0  9994
2 37120  74.0166 280.9877 0057047  99.6374 261.1230 14.36778717329810
Source of the keplerian elements: AFSPC

N2YO: 459